星链-3726 (STARLINK-3726 )

导读 | 星芒AI

STARLINK-3726 是 SpaceX Starlink 项目中的一颗低轨通信卫星,属于该星座的众多组网卫星之一。该卫星旨在为全球用户提供高速、低延迟的互联网服务,尤其关注偏远和网络基础设施薄弱的地区。它运行在约 550 公里的轨道高度,配备先进通信设备,支持 Ku 和 Ka 频段。STARLINK-3726 于 2023 年发射,是 SpaceX 扩展其全球宽带网络计划的一部分,有助于提升 Starlink 系统的覆盖范围与服务质量。

基本信息
目录编号:
52122
目录名称:
STARLINK-3726
国际标识:
2022-029AL
轨道中心:
EARTH
卫星名称:
星链-3726
卫星全名:
星链-3726 (STARLINK-3726 )
卫星状态:
在轨 (已飞行1373 天)
发射日期:
2022-03-19 UTC
国别 :
美国 (US)
星等 :
--
轨道信息
数据来源 国际轨道数据 AOE轨道数据
星历时间 2025-12-20T23:09:13+0800
9小时前
查看轨道信息
2025-12-16T11:00:00+0800
4天前
查看轨道信息
半长轴 6917.877km 6917.878km
偏心率 0.000143 0.0001393
轨道倾角 53.218° 53.217°
近地点辐角 84.587° 77.466°
升交点赤经 74.028° 94.260°
平近点角 275.528° 271.356°
近地点 538.75km 538.779km
远地点 540.73km 540.707km
周期 95.437分钟 95.438分钟
每日圈数 15.088414 15.088408
详细信息
固有亮度:
5
最大亮度:
2.5
卫星平台:
Starlink v1.5
覆盖范围:
全球
运营商:
太空探索技术公司
运营商所在国:
美国
制造商(研发单位):
太空探索技术公司
制造商所在国:
美国
使用方式:
暂无
卫星简介
星链(Starlink)计划是由太空探索技术公司(SpaceX)提出的一个巨型低轨卫星互联网星座项目,计划在2019年至2024年间在太空搭建由约1.2万颗卫星组成的“星链”网络,其中1584颗将部署在地球上空550千米处的近地轨道,并从2020年开始工作。该卫星仍在工作。
2D轨道图
3D轨道图
轨道高度分析图
轨道倾角分析图
轨道综合分析图
查看轨道综合分析图